Location: Kermapucano
(48.0667°N, 3.3000°W)
Time: 20:13:12
(UTC+00:00)

PSLV R/B - Pass Details

Date: 29 November 2020
Orbit: 568 x 597 km, 98.2° (Epoch: 27 January)

Event Time Altitude Azimuth Distance (km) Brightness Sun altitude
Rises 05:45:11 0° 173° (S) 2,807 7.7 -18.5°
Reaches altitude 10° 05:47:22 10° 176° (S) 1,907 6.8 -18.2°
Maximum altitude 05:51:27 62° 258° (WSW) 659 3.9 -17.5°
Enters shadow 05:54:13 20° 335° (NNW) 1,376 5.5 -17.1°
